Time,TemperatureF,DewpointF,PressureIn,WindDirection,WindDirectionDegrees,WindSpeedMPH,WindSpeedGustMPH,Humidity,HourlyPrecipIn,Conditions,Clouds,dailyrainin,SoftwareType,DateUTC
2013-08-28 00:00:00,68.5,64.8,29.93,North,32767,0.0,0.0,88,0.00,,,0.00,Wunderground v.1.13,2013-08-28 04:00:00,
2013-08-28 00:05:00,68.4,64.7,29.92,North,32767,0.0,0.0,88,0.00,,,0.00,Wunderground v.1.13,2013-08-28 04:05:00,
2013-08-28 00:10:00,68.3,64.6,29.92,North,32767,0.0,0.0,88,0.00,,,0.00,Wunderground v.1.13,2013-08-28 04:10:00,
2013-08-28 00:15:00,68.2,64.8,29.92,North,32767,0.0,0.0,89,0.00,,,0.00,Wunderground v.1.13,2013-08-28 04:15:00,
2013-08-28 00:25:00,68.0,64.6,29.92,North,360,0.0,0.0,89,0.00,,,0.00,Wunderground v.1.13,2013-08-28 04:25:00,
2013-08-28 00:30:00,67.9,64.5,29.92,North,360,0.0,0.0,89,0.00,,,0.00,Wunderground v.1.13,2013-08-28 04:30:00,
2013-08-28 00:35:00,67.8,64.8,29.92,North,32767,0.0,0.0,90,0.00,,,0.00,Wunderground v.1.13,2013-08-28 04:35:00,
2013-08-28 00:40:00,67.7,64.7,29.92,North,32767,0.0,0.0,90,0.00,,,0.00,Wunderground v.1.13,2013-08-28 04:40:00,
2013-08-28 00:45:00,67.6,64.6,29.92,North,360,0.0,0.0,90,0.00,,,0.00,Wunderground v.1.13,2013-08-28 04:45:00,
2013-08-28 00:50:00,67.6,64.6,29.92,North,32767,0.0,0.0,90,0.00,,,0.00,Wunderground v.1.13,2013-08-28 04:50:00,
2013-08-28 00:55:00,67.5,64.5,29.92,North,32767,0.0,0.0,90,0.00,,,0.00,Wunderground v.1.13,2013-08-28 04:55:00,
2013-08-28 01:05:00,67.5,64.8,29.92,N/A,-737280,0.0,0.0,91,0.00,,,0.00,Wunderground v.1.13,2013-08-28 05:05:00,
2013-08-28 01:15:00,67.5,65.1,29.91,North,32767,0.0,0.0,92,0.00,,,0.00,Wunderground v.1.13,2013-08-28 05:15:00,
2013-08-28 01:20:00,67.5,65.1,29.91,North,360,0.0,0.0,92,0.00,,,0.00,Wunderground v.1.13,2013-08-28 05:20:00,
2013-08-28 01:25:00,67.5,65.1,29.91,North,32767,0.0,0.0,92,0.00,,,0.00,Wunderground v.1.13,2013-08-28 05:25:00,
2013-08-28 01:35:00,67.6,65.2,29.91,North,32767,0.0,0.0,92,0.00,,,0.00,Wunderground v.1.13,2013-08-28 05:35:00,
2013-08-28 01:40:00,67.7,65.3,29.90,North,32767,0.0,0.0,92,0.00,,,0.00,Wunderground v.1.13,2013-08-28 05:40:00,
2013-08-28 01:45:00,67.7,65.3,29.90,North,360,0.0,0.0,92,0.00,,,0.00,Wunderground v.1.13,2013-08-28 05:45:00,
2013-08-28 01:55:00,67.9,65.5,29.90,North,32767,0.0,0.0,92,0.00,,,0.00,Wunderground v.1.13,2013-08-28 05:55:00,
2013-08-28 02:00:00,67.9,65.5,29.90,North,360,0.0,0.0,92,0.00,,,0.00,Wunderground v.1.13,2013-08-28 06:00:00,
2013-08-28 02:05:00,68.0,65.6,29.89,North,32767,0.0,0.0,92,0.00,,,0.00,Wunderground v.1.13,2013-08-28 06:05:00,
2013-08-28 02:10:00,68.0,65.6,29.90,North,32767,0.0,0.0,92,0.00,,,0.00,Wunderground v.1.13,2013-08-28 06:10:00,
2013-08-28 02:20:00,68.1,65.4,29.89,North,360,0.0,0.0,91,0.00,,,0.00,Wunderground v.1.13,2013-08-28 06:20:00,
2013-08-28 02:25:00,68.1,65.4,29.89,North,32767,0.0,0.0,91,0.00,,,0.00,Wunderground v.1.13,2013-08-28 06:25:00,
2013-08-28 02:30:00,68.1,65.4,29.89,North,32767,0.0,0.0,91,0.00,,,0.00,Wunderground v.1.13,2013-08-28 06:30:00,
2013-08-28 02:35:00,68.0,65.3,29.89,North,32767,0.0,0.0,91,0.00,,,0.00,Wunderground v.1.13,2013-08-28 06:35:00,
2013-08-28 02:45:00,67.9,65.2,29.89,North,32767,0.0,0.0,91,0.00,,,0.00,Wunderground v.1.13,2013-08-28 06:45:00,
2013-08-28 02:50:00,67.8,65.1,29.89,North,32767,0.0,0.0,91,0.00,,,0.00,Wunderground v.1.13,2013-08-28 06:50:00,
2013-08-28 03:00:00,67.6,64.9,29.89,North,32767,0.0,0.0,91,0.00,,,0.00,Wunderground v.1.13,2013-08-28 07:00:00,
2013-08-28 03:05:00,67.5,64.5,29.89,North,32767,0.0,0.0,90,0.00,,,0.00,Wunderground v.1.13,2013-08-28 07:05:00,
2013-08-28 03:10:00,67.3,64.6,29.89,North,32767,0.0,0.0,91,0.00,,,0.00,Wunderground v.1.13,2013-08-28 07:10:00,
2013-08-28 03:15:00,67.2,64.5,29.89,North,32767,0.0,0.0,91,0.00,,,0.00,Wunderground v.1.13,2013-08-28 07:15:00,
2013-08-28 03:25:00,66.9,64.2,29.89,North,32767,0.0,0.0,91,0.00,,,0.00,Wunderground v.1.13,2013-08-28 07:25:00,
2013-08-28 03:30:00,66.7,64.0,29.89,North,32767,0.0,0.0,91,0.00,,,0.00,Wunderground v.1.13,2013-08-28 07:30:00,
2013-08-28 03:35:00,66.6,63.9,29.89,North,360,0.0,0.0,91,0.00,,,0.00,Wunderground v.1.13,2013-08-28 07:35:00,
2013-08-28 03:45:00,66.4,64.0,29.89,North,32767,0.0,0.0,92,0.00,,,0.00,Wunderground v.1.13,2013-08-28 07:45:00,
2013-08-28 03:50:00,66.2,63.8,29.89,North,360,0.0,0.0,92,0.00,,,0.00,Wunderground v.1.13,2013-08-28 07:50:00,
2013-08-28 03:55:00,66.1,63.7,29.89,North,360,0.0,0.0,92,0.00,,,0.00,Wunderground v.1.13,2013-08-28 07:55:00,
2013-08-28 04:00:00,66.0,63.6,29.89,North,32767,0.0,0.0,92,0.00,,,0.00,Wunderground v.1.13,2013-08-28 08:00:00,
2013-08-28 04:10:00,65.8,63.4,29.89,North,360,0.0,0.0,92,0.00,,,0.00,Wunderground v.1.13,2013-08-28 08:10:00,
2013-08-28 04:15:00,65.7,63.3,29.89,North,32767,0.0,0.0,92,0.00,,,0.00,Wunderground v.1.13,2013-08-28 08:15:00,
2013-08-28 04:20:00,65.6,63.2,29.89,North,32767,0.0,0.0,92,0.00,,,0.00,Wunderground v.1.13,2013-08-28 08:20:00,
2013-08-28 04:30:00,65.4,63.0,29.89,North,360,0.0,0.0,92,0.00,,,0.00,Wunderground v.1.13,2013-08-28 08:30:00,
2013-08-28 04:35:00,65.4,63.0,29.89,North,32767,0.0,0.0,92,0.00,,,0.00,Wunderground v.1.13,2013-08-28 08:35:00,
2013-08-28 04:40:00,65.3,62.9,29.89,North,32767,0.0,0.0,92,0.00,,,0.00,Wunderground v.1.13,2013-08-28 08:40:00,
2013-08-28 04:50:00,65.2,63.1,29.89,North,360,0.0,0.0,93,0.00,,,0.00,Wunderground v.1.13,2013-08-28 08:50:00,
2013-08-28 04:55:00,65.1,63.0,29.90,North,32767,0.0,0.0,93,0.00,,,0.00,Wunderground v.1.13,2013-08-28 08:55:00,
2013-08-28 05:00:00,65.1,63.0,29.89,North,360,0.0,0.0,93,0.00,,,0.00,Wunderground v.1.13,2013-08-28 09:00:00,
2013-08-28 05:05:00,65.1,63.0,29.89,North,360,0.0,0.0,93,0.00,,,0.00,Wunderground v.1.13,2013-08-28 09:05:00,
2013-08-28 05:15:00,65.1,63.0,29.89,North,32767,0.0,0.0,93,0.00,,,0.00,Wunderground v.1.13,2013-08-28 09:15:00,
2013-08-28 05:20:00,65.0,62.9,29.89,North,32767,0.0,0.0,93,0.00,,,0.00,Wunderground v.1.13,2013-08-28 09:20:00,
2013-08-28 05:25:00,64.9,62.8,29.90,North,360,0.0,0.0,93,0.00,,,0.00,Wunderground v.1.13,2013-08-28 09:25:00,
2013-08-28 05:35:00,64.9,62.8,29.90,North,32767,0.0,0.0,93,0.00,,,0.00,Wunderground v.1.13,2013-08-28 09:35:00,
2013-08-28 05:40:00,64.8,62.7,29.90,North,360,0.0,0.0,93,0.00,,,0.00,Wunderground v.1.13,2013-08-28 09:40:00,
2013-08-28 05:45:00,64.8,62.7,29.90,North,360,0.0,0.0,93,0.00,,,0.00,Wunderground v.1.13,2013-08-28 09:45:00,
2013-08-28 05:55:00,64.7,62.6,29.90,North,32767,0.0,0.0,93,0.00,,,0.00,Wunderground v.1.13,2013-08-28 09:55:00,
2013-08-28 06:00:00,64.6,62.5,29.90,North,360,0.0,0.0,93,0.00,,,0.00,Wunderground v.1.13,2013-08-28 10:00:00,
2013-08-28 06:05:00,64.5,62.4,29.91,North,32767,0.0,0.0,93,0.00,,,0.00,Wunderground v.1.13,2013-08-28 10:05:00,
2013-08-28 06:15:00,64.4,62.3,29.91,North,360,0.0,0.0,93,0.00,,,0.00,Wunderground v.1.13,2013-08-28 10:15:00,
2013-08-28 06:20:00,64.3,62.2,29.91,North,32767,0.0,0.0,93,0.00,,,0.00,Wunderground v.1.13,2013-08-28 10:20:00,
2013-08-28 06:25:00,64.3,62.2,29.91,North,32767,0.0,0.0,93,0.00,,,0.00,Wunderground v.1.13,2013-08-28 10:25:00,
2013-08-28 06:30:00,64.2,62.1,29.91,North,32767,0.0,0.0,93,0.00,,,0.00,Wunderground v.1.13,2013-08-28 10:30:00,
2013-08-28 06:40:00,64.1,62.0,29.91,North,360,0.0,0.0,93,0.00,,,0.00,Wunderground v.1.13,2013-08-28 10:40:00,
2013-08-28 06:45:00,64.0,61.9,29.92,North,32767,0.0,0.0,93,0.00,,,0.00,Wunderground v.1.13,2013-08-28 10:45:00,
2013-08-28 06:50:00,64.0,62.2,29.91,North,360,0.0,0.0,94,0.00,,,0.00,Wunderground v.1.13,2013-08-28 10:50:00,
2013-08-28 06:55:00,64.0,62.2,29.91,North,360,0.0,0.0,94,0.00,,,0.00,Wunderground v.1.13,2013-08-28 10:55:00,
2013-08-28 07:05:00,64.0,62.2,29.92,North,32767,0.0,0.0,94,0.00,,,0.00,Wunderground v.1.13,2013-08-28 11:05:00,
2013-08-28 07:10:00,63.9,62.1,29.92,North,32767,0.0,0.0,94,0.00,,,0.00,Wunderground v.1.13,2013-08-28 11:10:00,
2013-08-28 07:15:00,64.0,62.2,29.92,North,360,0.0,0.0,94,0.00,,,0.00,Wunderground v.1.13,2013-08-28 11:15:00,
2013-08-28 07:25:00,64.0,62.2,29.92,North,32767,0.0,0.0,94,0.00,,,0.00,Wunderground v.1.13,2013-08-28 11:25:00,
2013-08-28 07:30:00,64.1,62.6,29.92,North,32767,0.0,0.0,95,0.00,,,0.00,Wunderground v.1.13,2013-08-28 11:30:00,
2013-08-28 07:35:00,64.1,62.6,29.92,North,32767,0.0,0.0,95,0.00,,,0.00,Wunderground v.1.13,2013-08-28 11:35:00,
2013-08-28 07:45:00,64.4,62.9,29.92,North,32767,0.0,0.0,95,0.00,,,0.00,Wunderground v.1.13,2013-08-28 11:45:00,
2013-08-28 07:50:00,64.7,63.5,29.92,North,32767,0.0,0.0,96,0.00,,,0.00,Wunderground v.1.13,2013-08-28 11:50:00,
2013-08-28 07:55:00,64.9,63.7,29.92,North,360,0.0,0.0,96,0.00,,,0.00,Wunderground v.1.13,2013-08-28 11:55:00,
2013-08-28 08:05:00,65.4,64.2,29.92,North,32767,0.0,0.0,96,0.00,,,0.00,Wunderground v.1.13,2013-08-28 12:05:00,
2013-08-28 08:10:00,65.6,64.4,29.92,North,360,0.0,0.0,96,0.00,,,0.00,Wunderground v.1.13,2013-08-28 12:10:00,
2013-08-28 08:15:00,65.9,65.0,29.92,North,32767,0.0,0.0,97,0.00,,,0.00,Wunderground v.1.13,2013-08-28 12:15:00,
2013-08-28 08:20:00,66.6,65.7,29.93,North,32767,0.0,0.0,97,0.00,,,0.00,Wunderground v.1.13,2013-08-28 12:20:00,
2013-08-28 08:30:00,67.8,66.3,29.92,North,360,0.0,0.0,95,0.00,,,0.00,Wunderground v.1.13,2013-08-28 12:30:00,
2013-08-28 08:35:00,68.4,66.6,29.92,North,360,0.0,0.0,94,0.00,,,0.00,Wunderground v.1.13,2013-08-28 12:35:00,
2013-08-28 08:45:00,69.1,67.0,29.92,North,360,0.0,0.0,93,0.00,,,0.00,Wunderground v.1.13,2013-08-28 12:45:00,
2013-08-28 08:50:00,69.3,66.9,29.92,North,32767,0.0,0.0,92,0.00,,,0.00,Wunderground v.1.13,2013-08-28 12:50:00,
2013-08-28 08:55:00,69.9,67.2,29.93,North,32767,0.0,0.0,91,0.00,,,0.00,Wunderground v.1.13,2013-08-28 12:55:00,
2013-08-28 09:00:00,70.3,67.5,29.93,North,360,0.0,0.0,91,0.00,,,0.00,Wunderground v.1.13,2013-08-28 13:00:00,
2013-08-28 09:10:00,71.7,68.0,29.93,North,32767,0.0,0.0,88,0.00,,,0.00,Wunderground v.1.13,2013-08-28 13:10:00,
2013-08-28 09:15:00,72.5,68.4,29.93,North,32767,0.0,0.0,87,0.00,,,0.00,Wunderground v.1.13,2013-08-28 13:15:00,
2013-08-28 09:20:00,73.4,68.6,29.92,North,360,0.0,0.0,85,0.00,,,0.00,Wunderground v.1.13,2013-08-28 13:20:00,
2013-08-28 09:25:00,73.5,68.4,29.92,North,32767,0.0,0.0,84,0.00,,,0.00,Wunderground v.1.13,2013-08-28 13:25:00,
2013-08-28 09:35:00,75.5,68.2,29.92,North,32767,0.0,0.0,78,0.00,,,0.00,Wunderground v.1.13,2013-08-28 13:35:00,
2013-08-28 09:40:00,75.9,67.4,29.92,North,32767,0.0,0.0,75,0.00,,,0.00,Wunderground v.1.13,2013-08-28 13:40:00,
2013-08-28 09:45:00,76.3,68.2,29.93,North,360,0.0,0.0,76,0.00,,,0.00,Wunderground v.1.13,2013-08-28 13:45:00,
2013-08-28 09:55:00,76.4,68.3,29.93,North,32767,0.0,0.0,76,0.00,,,0.00,Wunderground v.1.13,2013-08-28 13:55:00,
2013-08-28 10:00:00,77.1,67.4,29.92,North,360,0.0,0.0,72,0.00,,,0.00,Wunderground v.1.13,2013-08-28 14:00:00,
2013-08-28 10:05:00,77.4,68.9,29.92,North,32767,0.0,0.0,75,0.00,,,0.00,Wunderground v.1.13,2013-08-28 14:05:00,
2013-08-28 10:15:00,78.1,68.3,29.93,North,360,0.0,0.0,72,0.00,,,0.00,Wunderground v.1.13,2013-08-28 14:15:00,
2013-08-28 10:20:00,77.8,68.0,29.92,North,360,0.0,0.0,72,0.00,,,0.00,Wunderground v.1.13,2013-08-28 14:20:00,
2013-08-28 10:25:00,77.7,67.5,29.92,North,32767,0.0,0.0,71,0.00,,,0.00,Wunderground v.1.13,2013-08-28 14:25:00,
2013-08-28 10:35:00,78.5,68.7,29.92,North,360,0.0,0.0,72,0.00,,,0.00,Wunderground v.1.13,2013-08-28 14:35:00,
2013-08-28 10:40:00,79.1,69.7,29.93,North,360,0.0,0.0,73,0.00,,,0.00,Wunderground v.1.13,2013-08-28 14:40:00,
2013-08-28 10:45:00,79.3,69.1,29.92,North,32767,0.0,0.0,71,0.00,,,0.00,Wunderground v.1.13,2013-08-28 14:45:00,
2013-08-28 10:50:00,79.0,68.4,29.92,North,32767,0.0,0.0,70,0.00,,,0.00,Wunderground v.1.13,2013-08-28 14:50:00,
2013-08-28 11:00:00,80.3,70.0,29.92,North,360,0.0,0.0,71,0.00,,,0.00,Wunderground v.1.13,2013-08-28 15:00:00,
2013-08-28 11:05:00,80.0,68.9,29.92,North,32767,0.0,0.0,69,0.00,,,0.00,Wunderground v.1.13,2013-08-28 15:05:00,
2013-08-28 11:10:00,79.5,70.1,29.92,North,360,0.0,0.0,73,0.00,,,0.00,Wunderground v.1.13,2013-08-28 15:10:00,
2013-08-28 11:15:00,80.1,69.0,29.92,North,32767,0.0,0.0,69,0.00,,,0.00,Wunderground v.1.13,2013-08-28 15:15:00,
2013-08-28 11:25:00,80.6,69.5,29.92,North,32767,0.0,0.0,69,0.00,,,0.00,Wunderground v.1.13,2013-08-28 15:25:00,
2013-08-28 11:30:00,79.9,68.4,29.92,North,32767,0.0,0.0,68,0.00,,,0.00,Wunderground v.1.13,2013-08-28 15:30:00,
2013-08-28 11:40:00,80.8,70.1,29.91,North,32767,0.0,0.0,70,0.00,,,0.00,Wunderground v.1.13,2013-08-28 15:40:00,
2013-08-28 11:45:00,82.2,69.7,29.91,North,32767,0.0,0.0,66,0.00,,,0.00,Wunderground v.1.13,2013-08-28 15:45:00,
2013-08-28 11:50:00,82.1,69.6,29.91,North,360,0.0,0.0,66,0.00,,,0.00,Wunderground v.1.13,2013-08-28 15:50:00,
2013-08-28 11:55:00,81.8,70.2,29.92,North,360,0.0,0.0,68,0.00,,,0.00,Wunderground v.1.13,2013-08-28 15:55:00,
2013-08-28 12:05:00,82.0,69.5,29.91,North,32767,0.0,0.0,66,0.00,,,0.00,Wunderground v.1.13,2013-08-28 16:05:00,
2013-08-28 12:10:00,82.0,70.4,29.91,North,360,0.0,0.0,68,0.00,,,0.00,Wunderground v.1.13,2013-08-28 16:10:00,
2013-08-28 12:15:00,83.1,71.4,29.91,North,32767,0.0,0.0,68,0.00,,,0.00,Wunderground v.1.13,2013-08-28 16:15:00,
2013-08-28 12:25:00,81.7,68.8,29.91,North,360,0.0,0.0,65,0.00,,,0.00,Wunderground v.1.13,2013-08-28 16:25:00,
2013-08-28 12:30:00,82.1,70.5,29.91,North,360,0.0,0.0,68,0.00,,,0.00,Wunderground v.1.13,2013-08-28 16:30:00,
2013-08-28 12:35:00,83.7,73.3,29.90,North,32767,0.0,0.0,71,0.00,,,0.00,Wunderground v.1.13,2013-08-28 16:35:00,
2013-08-28 12:40:00,83.8,69.9,29.90,North,32767,0.0,0.0,63,0.00,,,0.00,Wunderground v.1.13,2013-08-28 16:40:00,
2013-08-28 12:50:00,83.9,71.8,29.90,North,360,0.0,0.0,67,0.00,,,0.00,Wunderground v.1.13,2013-08-28 16:50:00,
2013-08-28 12:55:00,85.7,71.2,29.90,North,32767,0.0,0.0,62,0.00,,,0.00,Wunderground v.1.13,2013-08-28 16:55:00,
2013-08-28 13:00:00,85.4,70.4,29.90,North,360,0.0,0.0,61,0.00,,,0.00,Wunderground v.1.13,2013-08-28 17:00:00,
2013-08-28 13:10:00,83.7,68.8,29.90,North,32767,0.0,0.0,61,0.00,,,0.00,Wunderground v.1.13,2013-08-28 17:10:00,
2013-08-28 13:15:00,84.2,70.7,29.90,North,32767,0.0,0.0,64,0.00,,,0.00,Wunderground v.1.13,2013-08-28 17:15:00,
2013-08-28 13:20:00,85.2,71.6,29.90,North,32767,0.0,0.0,64,0.00,,,0.00,Wunderground v.1.13,2013-08-28 17:20:00,
2013-08-28 13:30:00,84.8,69.9,29.90,North,360,0.0,0.0,61,0.00,,,0.00,Wunderground v.1.13,2013-08-28 17:30:00,
2013-08-28 13:35:00,84.8,69.9,29.90,North,32767,0.0,0.0,61,0.00,,,0.00,Wunderground v.1.13,2013-08-28 17:35:00,
2013-08-28 13:40:00,84.2,67.8,29.89,North,360,0.0,0.0,58,0.00,,,0.00,Wunderground v.1.13,2013-08-28 17:40:00,
2013-08-28 13:45:00,84.7,67.8,29.89,North,360,0.0,0.0,57,0.00,,,0.00,Wunderground v.1.13,2013-08-28 17:45:00,
2013-08-28 13:55:00,85.8,67.8,29.89,North,32767,0.0,0.0,55,0.00,,,0.00,Wunderground v.1.13,2013-08-28 17:55:00,
2013-08-28 14:00:00,85.6,68.6,29.89,North,360,0.0,0.0,57,0.00,,,0.00,Wunderground v.1.13,2013-08-28 18:00:00,
2013-08-28 14:05:00,86.0,69.5,29.89,North,32767,0.0,0.0,58,0.00,,,0.00,Wunderground v.1.13,2013-08-28 18:05:00,
2013-08-28 14:15:00,85.6,69.1,29.88,North,360,0.0,0.0,58,0.00,,,0.00,Wunderground v.1.13,2013-08-28 18:15:00,
2013-08-28 14:20:00,85.5,68.5,29.88,North,32767,0.0,0.0,57,0.00,,,0.00,Wunderground v.1.13,2013-08-28 18:20:00,
2013-08-28 14:25:00,85.1,68.2,29.88,North,32767,0.0,0.0,57,0.00,,,0.00,Wunderground v.1.13,2013-08-28 18:25:00,
2013-08-28 14:35:00,85.6,69.1,29.88,North,32767,0.0,0.0,58,0.00,,,0.00,Wunderground v.1.13,2013-08-28 18:35:00,
2013-08-28 14:40:00,84.4,69.0,29.88,North,360,0.0,0.0,60,0.00,,,0.00,Wunderground v.1.13,2013-08-28 18:40:00,
2013-08-28 14:45:00,85.3,69.8,29.88,North,360,0.0,0.0,60,0.00,,,0.00,Wunderground v.1.13,2013-08-28 18:45:00,
2013-08-28 14:50:00,86.5,70.0,29.88,North,360,0.0,0.0,58,0.00,,,0.00,Wunderground v.1.13,2013-08-28 18:50:00,
2013-08-28 15:00:00,86.6,70.6,29.88,North,32767,0.0,0.0,59,0.00,,,0.00,Wunderground v.1.13,2013-08-28 19:00:00,
2013-08-28 15:05:00,86.3,69.3,29.87,North,32767,0.0,0.0,57,0.00,,,0.00,Wunderground v.1.13,2013-08-28 19:05:00,
2013-08-28 15:10:00,86.3,69.8,29.87,North,32767,0.0,0.0,58,0.00,,,0.00,Wunderground v.1.13,2013-08-28 19:10:00,
2013-08-28 15:20:00,85.6,69.1,29.87,North,360,0.0,0.0,58,0.00,,,0.00,Wunderground v.1.13,2013-08-28 19:20:00,
2013-08-28 15:25:00,85.8,69.8,29.87,North,32767,0.0,0.0,59,0.00,,,0.00,Wunderground v.1.13,2013-08-28 19:25:00,
2013-08-28 15:30:00,85.6,70.1,29.87,North,360,0.0,0.0,60,0.00,,,0.00,Wunderground v.1.13,2013-08-28 19:30:00,
2013-08-28 15:35:00,85.9,70.4,29.87,North,32767,0.0,0.0,60,0.00,,,0.00,Wunderground v.1.13,2013-08-28 19:35:00,
2013-08-28 15:45:00,86.5,69.5,29.87,North,32767,0.0,0.0,57,0.00,,,0.00,Wunderground v.1.13,2013-08-28 19:45:00,
2013-08-28 15:50:00,86.3,69.8,29.87,North,360,0.0,0.0,58,0.00,,,0.00,Wunderground v.1.13,2013-08-28 19:50:00,
2013-08-28 15:55:00,85.9,69.9,29.87,North,360,0.0,0.0,59,0.00,,,0.00,Wunderground v.1.13,2013-08-28 19:55:00,
2013-08-28 16:05:00,85.1,70.6,29.87,North,360,0.0,0.0,62,0.00,,,0.00,Wunderground v.1.13,2013-08-28 20:05:00,
2013-08-28 16:10:00,84.6,70.6,29.87,North,32767,0.0,0.0,63,0.00,,,0.00,Wunderground v.1.13,2013-08-28 20:10:00,
2013-08-28 16:15:00,83.8,69.9,29.87,North,32767,0.0,0.0,63,0.00,,,0.00,Wunderground v.1.13,2013-08-28 20:15:00,
2013-08-28 16:25:00,82.9,69.9,29.87,North,32767,0.0,0.0,65,0.00,,,0.00,Wunderground v.1.13,2013-08-28 20:25:00,
2013-08-28 16:30:00,82.0,70.8,29.88,North,360,0.0,0.0,69,0.00,,,0.00,Wunderground v.1.13,2013-08-28 20:30:00,
2013-08-28 16:35:00,81.8,69.8,29.88,North,360,0.0,0.0,67,0.00,,,0.00,Wunderground v.1.13,2013-08-28 20:35:00,
2013-08-28 16:40:00,81.6,70.9,29.88,North,360,0.0,0.0,70,0.00,,,0.00,Wunderground v.1.13,2013-08-28 20:40:00,
2013-08-28 16:50:00,81.4,70.2,29.88,North,32767,0.0,0.0,69,0.00,,,0.00,Wunderground v.1.13,2013-08-28 20:50:00,
2013-08-28 16:55:00,81.5,69.9,29.89,North,32767,0.0,0.0,68,0.00,,,0.00,Wunderground v.1.13,2013-08-28 20:55:00,
2013-08-28 17:00:00,81.4,69.8,29.89,North,32767,0.0,0.0,68,0.00,,,0.00,Wunderground v.1.13,2013-08-28 21:00:00,
2013-08-28 17:10:00,81.3,69.3,29.89,North,32767,0.0,0.0,67,0.00,,,0.00,Wunderground v.1.13,2013-08-28 21:10:00,
2013-08-28 17:15:00,81.1,70.0,29.89,North,32767,0.0,0.0,69,0.00,,,0.00,Wunderground v.1.13,2013-08-28 21:15:00,
2013-08-28 17:20:00,80.8,69.7,29.89,North,360,0.0,0.0,69,0.00,,,0.00,Wunderground v.1.13,2013-08-28 21:20:00,
2013-08-28 17:30:00,80.2,69.5,29.88,North,32767,0.0,0.0,70,0.00,,,0.00,Wunderground v.1.13,2013-08-28 21:30:00,
2013-08-28 17:35:00,80.0,69.3,29.88,North,32767,0.0,0.0,70,0.00,,,0.00,Wunderground v.1.13,2013-08-28 21:35:00,
2013-08-28 17:40:00,79.8,69.1,29.88,North,360,0.0,0.0,70,0.00,,,0.00,Wunderground v.1.13,2013-08-28 21:40:00,
2013-08-28 17:50:00,79.7,69.5,29.88,North,32767,0.0,0.0,71,0.00,,,0.00,Wunderground v.1.13,2013-08-28 21:50:00,
2013-08-28 17:55:00,79.6,69.0,29.89,North,360,0.0,0.0,70,0.00,,,0.00,Wunderground v.1.13,2013-08-28 21:55:00,
2013-08-28 18:00:00,79.5,69.3,29.89,North,32767,0.0,0.0,71,0.00,,,0.00,Wunderground v.1.13,2013-08-28 22:00:00,
2013-08-28 18:05:00,79.3,68.7,29.90,North,32767,0.0,0.0,70,0.00,,,0.00,Wunderground v.1.13,2013-08-28 22:05:00,
2013-08-28 18:15:00,79.0,68.4,29.90,North,32767,0.0,0.0,70,0.00,,,0.00,Wunderground v.1.13,2013-08-28 22:15:00,
2013-08-28 18:20:00,78.8,68.2,29.90,North,360,0.0,0.0,70,0.00,,,0.00,Wunderground v.1.13,2013-08-28 22:20:00,
2013-08-28 18:25:00,78.5,67.9,29.90,North,32767,0.0,0.0,70,0.00,,,0.00,Wunderground v.1.13,2013-08-28 22:25:00,
2013-08-28 18:30:00,78.3,67.3,29.90,North,360,0.0,0.0,69,0.00,,,0.00,Wunderground v.1.13,2013-08-28 22:30:00,
2013-08-28 18:40:00,77.7,66.7,29.91,North,32767,0.0,0.0,69,0.00,,,0.00,Wunderground v.1.13,2013-08-28 22:40:00,
2013-08-28 18:45:00,77.4,66.4,29.91,North,32767,0.0,0.0,69,0.00,,,0.00,Wunderground v.1.13,2013-08-28 22:45:00,
2013-08-28 18:50:00,77.1,66.1,29.91,North,32767,0.0,0.0,69,0.00,,,0.00,Wunderground v.1.13,2013-08-28 22:50:00,
2013-08-28 19:00:00,76.9,66.8,29.91,North,32767,0.0,0.0,71,0.00,,,0.00,Wunderground v.1.13,2013-08-28 23:00:00,
2013-08-28 19:05:00,76.8,66.3,29.92,North,32767,0.0,0.0,70,0.00,,,0.00,Wunderground v.1.13,2013-08-28 23:05:00,
2013-08-28 19:10:00,76.6,66.9,29.92,North,360,0.0,0.0,72,0.00,,,0.00,Wunderground v.1.13,2013-08-28 23:10:00,
2013-08-28 19:20:00,76.5,67.2,29.92,North,32767,0.0,0.0,73,0.00,,,0.00,Wunderground v.1.13,2013-08-28 23:20:00,
2013-08-28 19:25:00,76.5,67.2,29.92,North,32767,0.0,0.0,73,0.00,,,0.00,Wunderground v.1.13,2013-08-28 23:25:00,
2013-08-28 19:30:00,76.5,67.2,29.92,North,32767,0.0,0.0,73,0.00,,,0.00,Wunderground v.1.13,2013-08-28 23:30:00,
2013-08-28 19:40:00,76.3,67.0,29.92,North,32767,0.0,0.0,73,0.00,,,0.00,Wunderground v.1.13,2013-08-28 23:40:00,
2013-08-28 19:45:00,76.2,67.7,29.92,North,360,0.0,0.0,75,0.00,,,0.00,Wunderground v.1.13,2013-08-28 23:45:00,
2013-08-28 19:50:00,76.1,67.6,29.92,North,360,0.0,0.0,75,0.00,,,0.00,Wunderground v.1.13,2013-08-28 23:50:00,
2013-08-28 19:55:00,75.9,67.0,29.92,North,360,0.0,0.0,74,0.00,,,0.00,Wunderground v.1.13,2013-08-28 23:55:00,
2013-08-28 20:05:00,75.6,67.1,29.92,North,32767,0.0,0.0,75,0.00,,,0.00,Wunderground v.1.13,2013-08-29 00:05:00,
2013-08-28 20:10:00,75.5,67.4,29.92,North,360,0.0,0.0,76,0.00,,,0.00,Wunderground v.1.13,2013-08-29 00:10:00,
2013-08-28 20:15:00,75.3,67.2,29.93,North,32767,0.0,0.0,76,0.00,,,0.00,Wunderground v.1.13,2013-08-29 00:15:00,
2013-08-28 20:25:00,75.0,67.3,29.93,North,360,0.0,0.0,77,0.00,,,0.00,Wunderground v.1.13,2013-08-29 00:25:00,
2013-08-28 20:30:00,74.8,67.1,29.93,North,360,0.0,0.0,77,0.00,,,0.00,Wunderground v.1.13,2013-08-29 00:30:00,
2013-08-28 20:35:00,74.6,67.3,29.94,North,32767,0.0,0.0,78,0.00,,,0.00,Wunderground v.1.13,2013-08-29 00:35:00,
2013-08-28 20:45:00,74.2,66.9,29.94,North,360,0.0,0.0,78,0.00,,,0.00,Wunderground v.1.13,2013-08-29 00:45:00,
2013-08-28 20:50:00,74.0,66.7,29.94,North,32767,0.0,0.0,78,0.00,,,0.00,Wunderground v.1.13,2013-08-29 00:50:00,
2013-08-28 20:55:00,73.8,66.9,29.95,North,360,0.0,0.0,79,0.00,,,0.00,Wunderground v.1.13,2013-08-29 00:55:00,
2013-08-28 21:00:00,73.5,66.6,29.95,North,360,0.0,0.0,79,0.00,,,0.00,Wunderground v.1.13,2013-08-29 01:00:00,
2013-08-28 21:10:00,73.1,66.9,29.95,North,32767,0.0,0.0,81,0.00,,,0.00,Wunderground v.1.13,2013-08-29 01:10:00,
2013-08-28 21:15:00,73.0,66.8,29.95,North,32767,0.0,0.0,81,0.00,,,0.00,Wunderground v.1.13,2013-08-29 01:15:00,
2013-08-28 21:20:00,72.8,66.6,29.95,North,360,0.0,0.0,81,0.00,,,0.00,Wunderground v.1.13,2013-08-29 01:20:00,
2013-08-28 21:30:00,72.5,66.7,29.95,North,32767,0.0,0.0,82,0.00,,,0.00,Wunderground v.1.13,2013-08-29 01:30:00,
2013-08-28 21:35:00,72.4,66.9,29.95,North,360,0.0,0.0,83,0.00,,,0.00,Wunderground v.1.13,2013-08-29 01:35:00,
2013-08-28 21:40:00,72.2,66.7,29.95,North,360,0.0,0.0,83,0.00,,,0.00,Wunderground v.1.13,2013-08-29 01:40:00,
2013-08-28 21:45:00,72.1,66.6,29.95,North,360,0.0,0.0,83,0.00,,,0.00,Wunderground v.1.13,2013-08-29 01:45:00,
2013-08-28 21:55:00,71.7,66.3,29.95,North,32767,0.0,0.0,83,0.00,,,0.00,Wunderground v.1.13,2013-08-29 01:55:00,
2013-08-28 22:00:00,71.5,66.4,29.95,North,360,0.0,0.0,84,0.00,,,0.00,Wunderground v.1.13,2013-08-29 02:00:00,
2013-08-28 22:10:00,71.2,66.1,29.95,North,32767,0.0,0.0,84,0.00,,,0.00,Wunderground v.1.13,2013-08-29 02:10:00,
2013-08-28 22:15:00,71.0,66.3,29.95,North,360,0.0,0.0,85,0.00,,,0.00,Wunderground v.1.13,2013-08-29 02:15:00,
2013-08-28 22:20:00,70.8,66.1,29.95,North,32767,0.0,0.0,85,0.00,,,0.00,Wunderground v.1.13,2013-08-29 02:20:00,
2013-08-28 22:25:00,70.6,66.2,29.96,North,32767,0.0,0.0,86,0.00,,,0.00,Wunderground v.1.13,2013-08-29 02:25:00,
2013-08-28 22:35:00,70.3,65.9,29.96,North,360,0.0,0.0,86,0.00,,,0.00,Wunderground v.1.13,2013-08-29 02:35:00,
2013-08-28 22:40:00,70.1,65.7,29.96,North,360,0.0,0.0,86,0.00,,,0.00,Wunderground v.1.13,2013-08-29 02:40:00,
2013-08-28 22:45:00,70.0,66.0,29.96,North,32767,0.0,0.0,87,0.00,,,0.00,Wunderground v.1.13,2013-08-29 02:45:00,
2013-08-28 22:50:00,69.8,65.8,29.96,North,360,0.0,0.0,87,0.00,,,0.00,Wunderground v.1.13,2013-08-29 02:50:00,
2013-08-28 23:00:00,69.5,65.8,29.96,North,32767,0.0,0.0,88,0.00,,,0.00,Wunderground v.1.13,2013-08-29 03:00:00,
2013-08-28 23:05:00,69.4,65.7,29.97,North,32767,0.0,0.0,88,0.00,,,0.00,Wunderground v.1.13,2013-08-29 03:05:00,
2013-08-28 23:10:00,69.3,65.6,29.97,North,32767,0.0,0.0,88,0.00,,,0.00,Wunderground v.1.13,2013-08-29 03:10:00,
2013-08-28 23:20:00,69.0,65.3,29.98,North,360,0.0,0.0,88,0.00,,,0.00,Wunderground v.1.13,2013-08-29 03:20:00,
2013-08-28 23:25:00,68.9,65.2,29.98,North,360,0.0,0.0,88,0.00,,,0.00,Wunderground v.1.13,2013-08-29 03:25:00,
2013-08-28 23:30:00,68.8,65.1,29.98,North,32767,0.0,0.0,88,0.00,,,0.00,Wunderground v.1.13,2013-08-29 03:30:00,
2013-08-28 23:40:00,68.6,64.9,29.98,North,32767,0.0,0.0,88,0.00,,,0.00,Wunderground v.1.13,2013-08-29 03:40:00,
2013-08-28 23:45:00,68.5,64.8,29.98,North,32767,0.0,0.0,88,0.00,,,0.00,Wunderground v.1.13,2013-08-29 03:45:00,
2013-08-28 23:50:00,68.4,64.7,29.98,North,360,0.0,0.0,88,0.00,,,0.00,Wunderground v.1.13,2013-08-29 03:50:00,